TimeEST,TemperatureF,Dew PointF,Humidity,Sea Level PressureIn,VisibilityMPH,Wind Direction,Wind SpeedMPH,Gust SpeedMPH,PrecipitationIn,Events,Conditions,WindDirDegrees,DateUTC
12:15 AM,29.3,28.4,96,30.27,3.0,Calm,Calm,-,N/A,,Clear,0,2013-01-04 05:15:00
12:35 AM,29.1,28.2,96,30.26,3.0,Calm,Calm,-,N/A,,Clear,0,2013-01-04 05:35:00
12:55 AM,29.3,28.4,96,30.26,3.0,Calm,Calm,-,N/A,,Clear,0,2013-01-04 05:55:00
1:15 AM,28.8,27.9,96,30.26,4.0,Calm,Calm,-,N/A,,Clear,0,2013-01-04 06:15:00
1:35 AM,28.6,27.7,96,30.26,4.0,Calm,Calm,-,N/A,,Clear,0,2013-01-04 06:35:00
1:55 AM,28.6,27.7,96,30.26,4.0,Calm,Calm,-,N/A,,Clear,0,2013-01-04 06:55:00
2:15 AM,28.6,27.7,96,30.27,4.0,Calm,Calm,-,N/A,,Clear,0,2013-01-04 07:15:00
2:35 AM,28.4,27.5,96,30.28,4.0,Calm,Calm,-,N/A,,Clear,0,2013-01-04 07:35:00
2:55 AM,27.5,26.6,96,30.29,5.0,Calm,Calm,-,N/A,,Clear,0,2013-01-04 07:55:00
3:15 AM,28.0,27.1,96,30.29,4.0,Calm,Calm,-,N/A,,Clear,0,2013-01-04 08:15:00
3:55 AM,26.6,25.7,96,30.28,5.0,Calm,Calm,-,N/A,,Clear,0,2013-01-04 08:55:00
4:15 AM,26.6,25.7,96,30.27,5.0,Calm,Calm,-,N/A,,Clear,0,2013-01-04 09:15:00
6:55 AM,23.9,22.8,96,30.29,7.0,Calm,Calm,-,N/A,,Clear,0,2013-01-04 11:55:00
7:15 AM,24.8,23.5,95,30.30,10.0,Calm,Calm,-,N/A,,Clear,0,2013-01-04 12:15:00
7:35 AM,24.3,23.0,95,30.30,7.0,Calm,Calm,-,N/A,,Clear,0,2013-01-04 12:35:00
7:55 AM,27.0,25.5,94,30.30,10.0,Calm,Calm,-,N/A,,Clear,0,2013-01-04 12:55:00
8:15 AM,28.9,27.1,93,30.30,10.0,Calm,Calm,-,N/A,,Clear,0,2013-01-04 13:15:00
8:35 AM,30.2,27.5,90,30.30,10.0,Calm,Calm,-,N/A,,Clear,0,2013-01-04 13:35:00
8:55 AM,30.6,28.0,90,30.30,7.0,Calm,Calm,-,N/A,,Clear,0,2013-01-04 13:55:00
9:15 AM,32.0,29.7,91,30.31,10.0,Calm,Calm,-,N/A,,Clear,0,2013-01-04 14:15:00
9:35 AM,34.0,31.5,90,30.32,10.0,South,3.5,-,N/A,,Clear,180,2013-01-04 14:35:00
9:55 AM,36.3,31.1,81,30.32,10.0,Calm,Calm,-,N/A,,Clear,0,2013-01-04 14:55:00
10:15 AM,38.5,27.9,66,30.32,10.0,West,3.5,-,N/A,,Clear,270,2013-01-04 15:15:00
10:35 AM,39.7,27.1,61,30.33,10.0,West,4.6,-,N/A,,Clear,280,2013-01-04 15:35:00
10:55 AM,41.9,27.7,57,30.33,10.0,WSW,5.8,-,N/A,,Clear,250,2013-01-04 15:55:00
11:15 AM,42.8,27.3,54,30.31,10.0,West,4.6,-,N/A,,Clear,270,2013-01-04 16:15:00
11:35 AM,45.9,24.1,42,30.30,10.0,West,8.1,-,N/A,,Clear,270,2013-01-04 16:35:00
11:55 AM,46.4,22.8,39,30.28,10.0,WNW,8.1,-,N/A,,Clear,290,2013-01-04 16:55:00
12:15 PM,47.1,25.7,43,30.27,10.0,West,5.8,-,N/A,,Clear,280,2013-01-04 17:15:00
12:35 PM,47.8,22.3,37,30.26,10.0,West,9.2,-,N/A,,Clear,260,2013-01-04 17:35:00
12:55 PM,49.1,22.5,35,30.25,10.0,West,6.9,-,N/A,,Clear,260,2013-01-04 17:55:00
1:15 PM,49.1,22.3,35,30.24,10.0,West,11.5,17.3,N/A,,Clear,270,2013-01-04 18:15:00
1:55 PM,50.4,22.6,34,30.22,10.0,West,6.9,-,N/A,,Clear,270,2013-01-04 18:55:00
2:15 PM,51.1,21.9,32,30.21,10.0,West,6.9,-,N/A,,Clear,270,2013-01-04 19:15:00
2:35 PM,50.9,21.9,32,30.21,10.0,WSW,9.2,-,N/A,,Clear,250,2013-01-04 19:35:00
2:55 PM,51.3,21.6,31,30.21,10.0,West,9.2,-,N/A,,Clear,260,2013-01-04 19:55:00
3:15 PM,51.3,21.2,31,30.20,10.0,West,6.9,-,N/A,,Clear,280,2013-01-04 20:15:00
3:35 PM,51.1,21.9,32,30.20,10.0,West,3.5,-,N/A,,Clear,260,2013-01-04 20:35:00
3:55 PM,51.1,22.3,32,30.21,10.0,West,9.2,-,N/A,,Clear,260,2013-01-04 20:55:00
4:15 PM,51.1,21.7,32,30.21,10.0,West,8.1,-,N/A,,Clear,260,2013-01-04 21:15:00
4:35 PM,50.7,21.6,32,30.21,10.0,West,6.9,-,N/A,,Clear,260,2013-01-04 21:35:00
5:15 PM,47.8,22.3,37,30.22,10.0,West,3.5,-,N/A,,Clear,260,2013-01-04 22:15:00
5:35 PM,48.2,22.1,36,30.22,10.0,West,3.5,-,N/A,,Mostly Cloudy,280,2013-01-04 22:35:00
5:55 PM,47.8,22.5,37,30.22,10.0,Calm,Calm,-,N/A,,Overcast,0,2013-01-04 22:55:00
6:15 PM,46.8,26.1,44,30.23,10.0,West,3.5,-,N/A,,Overcast,280,2013-01-04 23:15:00
6:35 PM,46.4,25.3,44,30.24,10.0,West,3.5,-,N/A,,Overcast,260,2013-01-04 23:35:00
6:55 PM,46.9,23.9,40,30.25,10.0,West,3.5,-,N/A,,Overcast,270,2013-01-04 23:55:00
7:15 PM,47.3,23.0,38,30.25,10.0,WNW,3.5,-,N/A,,Overcast,290,2013-01-05 00:15:00
7:55 PM,46.4,22.3,39,30.27,10.0,WNW,5.8,-,N/A,,Mostly Cloudy,290,2013-01-05 00:55:00
8:15 PM,45.7,21.9,39,30.27,10.0,WNW,4.6,-,N/A,,Clear,300,2013-01-05 01:15:00
8:35 PM,44.8,21.9,40,30.28,10.0,WNW,8.1,-,N/A,,Clear,300,2013-01-05 01:35:00
8:55 PM,44.4,19.8,37,30.29,10.0,NW,6.9,-,N/A,,Clear,310,2013-01-05 01:55:00
9:15 PM,43.9,18.1,36,30.29,10.0,NW,8.1,-,N/A,,Clear,310,2013-01-05 02:15:00
9:35 PM,42.1,18.3,39,30.30,10.0,NW,6.9,-,N/A,,Clear,320,2013-01-05 02:35:00
10:15 PM,40.6,18.9,42,30.31,10.0,NW,10.4,-,N/A,,Clear,320,2013-01-05 03:15:00
10:35 PM,40.1,19.4,43,30.31,10.0,NW,4.6,-,N/A,,Clear,320,2013-01-05 03:35:00
10:55 PM,38.3,20.1,48,30.31,10.0,North,4.6,-,N/A,,Clear,350,2013-01-05 03:55:00
11:15 PM,38.5,19.9,47,30.30,10.0,Calm,Calm,-,N/A,,Clear,0,2013-01-05 04:15:00
11:35 PM,33.4,22.6,65,30.30,10.0,Calm,Calm,-,N/A,,Clear,0,2013-01-05 04:35:00
11:55 PM,31.1,22.6,71,30.30,10.0,Calm,Calm,-,N/A,,Clear,0,2013-01-05 04:55:00